Key statistics
Satellite TSUBAME at a glance.
Uptime
3652
Days in orbit
Revolutions
≈ 15.4
Per day
Orbit
SSO
Sun Synchronous Orbit
Inclination
97.1
Latest
Satellite identification and parameters
Extended collection of information and parameters for TSUBAME.
Object identification
Identified? True
Debris? False
Object name: TSUBAME
International designator: 2014-070E
Object number (NORAD): 40302
Object ID (CCSDS): 40302
Country: JAPAN (JPN)
Current information (Y/N): Y
RCS size: MEDIUM
Orbital parameters
Decay date: Nov. 5, 2024
Period: 93.433 minutes
Inclination: 97.1179 deg
SMA: 6820.672 km
Apoapsis: 457.091 km
Periapsis: 427.983 km
RAAN: 52.2032 deg
Eccentricy: 0.0021338
Argument of periapsis: 212.1232 deg
Mean anomaly: 147.8716 deg
Mean motion: 15.41210629 rev/day
Mean motion (dot): 0.00039864 rev/day2
B* drag term: 0.0009508 1/REarth
Two-line elements (TLE)
Creation date: Feb. 12, 2024, 3:07 a.m.
Reference frame: TEME
Reference center: EARTH
Epoch: Feb. 11, 2024, 10:44 p.m. UTC
TLE line 0: 0 TSUBAME
TLE line 1: 1 40302U 14070E 24042.94782306 .00039864 00000-0 95080-3 0 9997
TLE line 2: 2 40302 97.1179 52.2032 0021338 212.1232 147.8716 15.41210629513687
Live tracking on map
Satellite TSUBAME has decayed and is no longer in orbit. No tracking available.
In-orbit conjunctions
Satellite TSUBAME has decayed and is no longer in orbit. No conjunctions available.
Associated space launch
TSUBAME was lifted into orbit during the mission ‘Dnepr 1 | ASNARO’, on board a Dnepr space rocket.
The launch took place on Nov. 6, 2014, 7:35 a.m. from 370/13.
For more information about the launch, click the button.
Dnepr 1 | ASNARO
Agency: N/A
Status: Launch Successful
Launch date: Nov. 6, 2014, 7:35 a.m. UTC
Rocket: Dnepr
Launch pad: 370/13
Location: Dombarovskiy, Russian Federation
...
Latest news about this satellite
There are no fresh news available about this satellite. Check back as we update our databases every day.
Newsletter sign-up
Weekly statistics, charts and insights to help you stay on top of the space industry.
